Weather in Kachkarovka

Ukraine / Kherson District     47°05′49″N   33°44′35″E
temp.,
°C
wind,
m/s
gust,
m/s
humid.,
%
clouds,
%
prec.,
mm/h
press.,
hPa
HPBL,
m
28 september, tue
tue2800:00+14nne666385 0.0 1020502
03:00+14nne5562100 0.0 1020664
06:00+13nne5670100 0.3 1020507
09:00+14nne6671100 0.6 1021624
12:00+14ne6666100 0.4 1022804
15:00+16ne3451100 0.4 10221266
18:00+16nne665390 0.0 1023954
21:00+16ne5651100 0.1 10241123
29 september, wed
wed2900:00+15ne5651100 0.0 1024970
03:00+15ne6759100 0.0 1025609
06:00+14ne7869100 0.1 1025555
09:00+13ne8972100 0.1 1026565
12:00+16ene78556 0.0 10261375
15:00+17ene7749100 0.0 10261984
18:00+16ene7851100 0.0 10271342
21:00+14ene895567 0.0 1028939
30 september, thu
thu3000:00+12ene68608 0.0 1029656
03:00+12ene79593 0.0 1029677
06:00+10ene710590 0.0 1029493
09:00+11ene810521 0.0 1030680
12:00+14ene78395 0.0 10301378
15:00+16ne78345 0.0 10291697
18:00+16ne78360 0.0 10281240
21:00+14ene79430 0.0 1029764
1 october, fri
fri100:00+12ene79480 0.0 1030486
03:00+11ene710510 0.0 1030468
06:00+11ene710550 0.0 1030463
09:00+12ene811510 0.0 1031689
12:00+15ene78390 0.0 10311539
15:00+16ene78350 0.0 10301913
18:00+16ene78372 0.0 10301558
21:00+14e68420 0.0 1031814
2 october, sat
sat200:00+12e69460 0.0 1030533
03:00+11ene710480 0.0 1030420
06:00+10ene710540 0.0 1029330
09:00+11ene710510 0.0 1029451
12:00+15ene78410 0.0 10281386
15:00+17e78330 0.0 10271891
18:00+16e78340 0.0 10261502
21:00+13e710545 0.0 1027720